Location: *
(28.3744°N, 81.5492°W)
Time: 03:47:39
(UTC+00:00)

Centaur AC-146 - Pass Details

Date: 15 June 2025
Orbit: 340 x 36363 km, 18.7° (Epoch: 10 July)

Event Time Altitude Azimuth Distance (km) Brightness Sun altitude
Rises 01:44:09 0° 250° (WSW) 2,738 5.8 -15.5°
Reaches altitude 10° 01:45:37 10° 239° (WSW) 2,213 5.2 -15.8°
Maximum altitude 01:50:03 37° 170° (S) 2,111 4.4 -16.6°
Enters shadow 01:59:34 20° 120° (ESE) 5,787 6.3 -18.2°
Exits shadow 02:22:34 - 109° (ESE) 13,794 8.3 -21.9°
Sets 02:51:02 0° 108° (ESE) 20,975 9.3 -26.1°
